STARLINK-1042

Last updated on Thu Dec 12 2019 00:02:03 GMT+0000 (Coordinated Universal Time)

1 44747U 19074AL 19345.58335648 -.00046116 00000-0 -12079-2 0 9992 2 44747 53.0055 23.7002 0001200 68.5948 55.7838 15.38117382 4709

Satellite not in orbit